Location: San Gennaro Vesuviano
(40.8833°N, 14.5333°E)
Time: 10:27:38
(UTC+00:00)

Meteor 2-15 - Pass Details

Date: 22 April 2021
Orbit: 936 x 955 km, 82.5° (Epoch: 10 May)

Event Time Altitude Azimuth Distance (km) Brightness Sun altitude
Exits shadow 20:29:12 67° 155° (SSE) 1,011 4.3 -26.2°
Maximum altitude 20:29:58 78° 96° (E) 960 4.3 -26.3°
Drops below altitude 10° 20:36:01 10° 11° (N) 2,656 7.2 -27.1°
Sets 20:38:31 0° 10° (N) 3,605 8.0 -27.4°
